Location: České Budějovice
(48.9747°N, 14.4743°E)
Time: 21:03:34
(UTC+02:00)

ISS - Visible Passes

Search period start: 17 July 2024 00:00
Search period end: 27 July 2024 00:00
Orbit: 409 x 424 km, 51.6° (Epoch: 17 July)

Date Brightness Start Highest point End Pass type
(mag) Time Alt. Az. Time Alt. Az. Time Alt. Az.
17 Jul -3.2 00:40:33 10° WNW 00:43:06 45° W 00:43:06 45° W visible
17 Jul -2.9 22:15:23 10° WNW 22:18:37 51° N 22:21:53 10° E visible
17 Jul -3.9 23:52:13 10° WNW 23:55:33 85° SSW 23:56:06 59° ESE visible
18 Jul -3.7 23:03:51 10° WNW 23:07:10 74° NNE 23:09:08 22° E visible
19 Jul -1.7 00:40:48 10° W 00:42:00 18° W 00:42:00 18° W visible
19 Jul -3.3 22:15:26 10° WNW 22:18:45 60° NNE 22:22:02 10° E visible
19 Jul -3.2 23:52:16 10° WNW 23:55:03 41° SW 23:55:03 41° SW visible
20 Jul -3.8 23:03:47 10° WNW 23:07:05 64° SSW 23:08:08 38° SE visible
21 Jul -3.8 22:15:19 10° WNW 22:18:39 89° SSW 22:21:13 16° ESE visible
21 Jul -1.8 23:52:29 10° W 23:54:05 18° WSW 23:54:05 18° WSW visible
22 Jul -3.6 21:26:49 10° WNW 21:30:08 71° NNE 21:33:27 10° E visible
22 Jul -2.8 23:03:44 10° W 23:06:43 31° SW 23:07:10 30° SSW visible
23 Jul -3.3 22:15:05 10° WNW 22:18:17 46° SSW 22:20:16 20° SE visible
24 Jul -3.7 21:26:28 10° WNW 21:29:47 68° SSW 21:33:05 10° ESE visible
24 Jul -1.6 23:04:06 10° WSW 23:06:02 15° SW 23:06:15 15° SW visible
25 Jul -2.1 22:14:58 10° W 22:17:38 22° SW 22:19:23 15° S visible
26 Jul -2.6 21:26:07 10° W 21:29:09 33° SW 21:32:10 10° SSE visible
